Location: Arroyo Mobile Home Park
(34.3733°N, 119.3071°W)
Time: 01:20:50
(UTC+00:00)

Cosmos 773 Rocket - Pass Details

Date: 03 August 2024
Orbit: 742 x 775 km, 74.1° (Epoch: 08 September)

Event Time Altitude Azimuth Distance (km) Brightness Sun altitude
Exits shadow 12:31:37 - 211° (SSW) 2,666 6.3 -8.0°
Reaches altitude 10° 12:32:42 10° 214° (SW) 2,255 5.9 -7.8°
Maximum altitude 12:37:39 51° 290° (WNW) 943 4.2 -6.9°
Drops below altitude 10° 12:42:42 10° 6° (N) 2,287 6.9 -6.0°
Sets 12:45:09 0° 12° (NNE) 3,221 7.8 -5.5°
